Regional Weather Roundup
Issued by NWS

Home | Current Version | Previous Version | Graphics & Text | Print | Product List | Glossary On
Versions: 1 2 3 4 5 6 7 8 9 10 11 12 13 14 15 16 17 18 19 20 21 22 23 24 25 26 27 28 29 30 31 32 33 34 35 36 37 38 39 40 41 42 43 44 45 46 47 48 49 50
000
ASUS43 KLMK 211302
RWRKY
KENTUCKY REGIONAL WEATHER ROUNDUP
NATIONAL WEATHER SERVICE LOUISVILLE KY
900 AM EDT TUE OCT 21 2014

NOTE "FAIR" INDICATES FEW OR NO CLOUDS BELOW 12,000 FEET
WITH NO SIGNIFICANT WEATHER AND/OR OBSTRUCTIONS TO VISIBILITY.

KYZ001>023-026-027-061>063-070>075-211400-
WESTERN AND SOUTH CENTRAL KENTUCKY

CITY           SKY/WX    TMP DP  RH WIND       PRES   REMARKS
PADUCAH        CLEAR     47  44  90 CALM      30.07R
HENDERSON      CLEAR    N/A N/A N/A CALM      30.06R
OWENSBORO      CLEAR     47  45  93 CALM      30.07R
HOPKINSVILLE   SUNNY     49  49  99 W3        30.06R
BOWLING GREEN  SUNNY     47  45  93 CALM      30.05R
GLASGOW        NOT AVBL
$$

KYZ024-025-028>034-038-045-046-053-211400-
NORTH CENTRAL KENTUCKY

CITY           SKY/WX    TMP DP  RH WIND       PRES   REMARKS
LOUISVILLE/SDF PTSUNNY   51  48  89 SW6       30.04R
LOUISVILLE/LOU CLOUDY    50  48  93 CALM      30.05R
FORT KNOX      CLOUDY    47  45  93 W3        30.04R
$$

KYZ035>037-039>044-047>052-055>060-089>105-211400-
NORTHEAST KENTUCKY

CITY           SKY/WX    TMP DP  RH WIND       PRES   REMARKS
LEXINGTON      CLOUDY    51  47  86 NW6       30.01R
COVINGTON      PTSUNNY   49  45  86 NW7       30.01R
FRANKFORT      CLOUDY    49  46  90 NW7       30.02R
$$

KYZ054-064>069-076>088-106>120-211400-
SOUTHEAST KENTUCKY

CITY           SKY/WX    TMP DP  RH WIND       PRES   REMARKS
JACKSON        CLOUDY    50  48  93 VRB6      29.99R FOG
LONDON         MOSUNNY   47  44  90 CALM      30.01R
SOMERSET       FOG       45  45 100 CALM      30.04R VSB 1
MIDDLESBORO    SUNNY     45  45  99 CALM      30.01R
MONTICELLO     SUNNY     45  45 100 CALM      30.05R FOG
$$



USA.gov is the U.S. government's official web portal to all federal, state and local government web resources and services.